Regional Weather Roundup
Issued by NWS

Home | Current Version | Previous Version | Text Only | Print | Product List | Glossary On
Versions: 1 2 3 4 5 6 7 8 9 10 11 12 13 14 15 16 17 18 19 20 21 22 23 24 25 26 27 28 29 30 31 32 33 34 35 36 37 38 39 40 41 42 43 44 45 46 47 48 49
000
ASUS45 KBOU 310907
RWRCO

WEATHER ROUNDUP FOR COLORADO
NATIONAL WEATHER SERVICE DENVER/BOULDER CO
300 AM MDT THU JUL 31 2014

NOTE: "FAIR" INDICATES FEW OR NO CLOUDS BELOW 12000 FEET WITH NO
SIGNIFICANT WEATHER AND/OR OBSTRUCTIONS TO VISIBILITY.

COZ001>005-013-030-031-311000-
...NORTHWEST COLORADO...

CITY           SKY/WX    TMP DP  RH WIND       PRES   REMARKS
CRAIG          CLOUDY    51  51 100 CALM      30.31
HAYDEN         PTCLDY    55  48  76 SE8       30.32S
MEEKER         PTCLDY    55  52  89 CALM      30.31F
MOUNT WERNER   NOT AVBL
STEAMBOAT SPGS PTCLDY    50  49  96 W3        30.34R
WALDEN         CLOUDY    50  45  81 N5        30.42S
$$

COZ006>008-011-311000-
...WEST CENTRAL VALLEYS...

CITY           SKY/WX    TMP DP  RH WIND       PRES   REMARKS
GRAND JUNCTION CLEAR     63  58  83 CALM      30.18S
MONTROSE       CLEAR     62  54  74 S7        30.26S
EAGLE          CLOUDY    57  55  94 E3        30.35S
RIFLE          PTCLDY    60  56  86 CALM      30.24S
DELTA          CLEAR     66  56  69 NE5       30.21S
NUCLA          CLEAR     61  54  77 E8        30.28S
$$

COZ017>023-064>068-311000-
...SOUTHWEST COLORADO...

CITY           SKY/WX    TMP DP  RH WIND       PRES   REMARKS
DURANGO        CLEAR     57  48  72 CALM      30.26R
CORTEZ         CLEAR     57  51  80 CALM      30.22R
PAGOSA SPRINGS CLEAR     52  46  81 CALM      30.35R
TELLURIDE      CLEAR     52  48  87 CALM      30.46R
WOLF CREEK PAS NOT AVBL
$$

COZ009-010-012-014-032>034-037-058>063-311000-
...CENTRAL COLORADO...

CITY           SKY/WX    TMP DP  RH WIND       PRES   REMARKS
ASPEN          PTCLDY    52  50  93 CALM      30.36F
BUENA VISTA    CLOUDY    52  51  95 SE5       30.42F
COPPER MTN     CLOUDY    46  41  81 S18       30.63F
BERTHOUD PASS  CLOUDY    37  37 100 W5        30.67S
COTTONWOOD PAS FOG       50  48  93 CALM      30.52F VSB 1/2
GUNNISON       PTCLDY    55  48  76 N5        30.39S
KREMMLING      CLOUDY    54  50  87 E3        30.39S
LEADVILLE      CLOUDY    46  45  96 CALM      30.50F
MONARCH PASS   MOCLDY    43  41  93 SW7       30.73F
SALIDA         NOT AVBL
SUNLIGHT       MOCLDY    50  46  87 CALM      30.57S
WILKERSON PASS FOG       43  43 100 CALM      30.62F VSB 3/4
$$

COZ069>075-311000-
...SAN LUIS VALLEY/SANGRE DE CRISTO MOUNTAINS...

CITY           SKY/WX    TMP DP  RH WIND       PRES   REMARKS
ALAMOSA        CLOUDY    55  52  89 E6        30.37F
LA VETA PASS   DRZL/FOG  46  45  93 NE3       30.54S VSB 1/4
SAGUACHE       CLOUDY    55  52  88 CALM      30.40S
$$

COZ035-036-038>040-311000-
...NORTHERN COLORADO FRONT RANGE...

CITY           SKY/WX    TMP DP  RH WIND       PRES   REMARKS
DENVER INTL AP CLOUDY    58  56  93 VRB5      30.29F
DMNS CITY PARK   N/A     58  57  96 S5        30.28S
AURORA         CLOUDY    57  56  99 S7        30.30F
FRONT RANGE AP CLOUDY    59  57  94 E3        30.30F
ERIE MUNI ARPT MOCLDY    58  57  97 CALM      30.28S
BOULDER MUN AP MOCLDY    55  55 100 CALM      30.28F
CENTENNIAL     CLOUDY    57  53  86 S7        30.31F
BROOMFIELD     MOCLDY    57  57 100 CALM      30.30F
FORT COLLINS   MOCLDY    59  57  94 CALM      30.29S
LONGMONT       MOCLDY    59  57  95 CALM      30.29F
$$

COZ041-046-047-076>085-087-088-311000-
...PIKES PEAK/PALMER DIVIDE AND SOUTHERN FOOTHILLS...

CITY           SKY/WX    TMP DP  RH WIND       PRES   REMARKS
COLO. SPRINGS  CLOUDY    57  54  89 CALM      30.36S
A. F. ACADEMY  CLOUDY    54  54 100 S2        30.36F
ELLICOTT       CLOUDY    57  55  93 CALM      30.34F
FALCON         CLOUDY    53  52  97 CALM      30.39S
FORT CARSON    CLOUDY    57  57 100 S5        30.34S
LIMON          CLOUDY    56  55  97 CALM      30.32S
MONUMENT HILL  DRIZZLE   52  50  93 S7        30.37S
TRINIDAD       MOCLDY    56  55  97 NE3       30.32F FOG
$$

COZ042>045-048>051-090-091-311000-
...NORTHEAST COLORADO...

CITY           SKY/WX    TMP DP  RH WIND       PRES   REMARKS
GREELEY ARPT   NOT AVBL
AKRON          CLOUDY    58  56  93 W7        30.27F
BURLINGTON     MOCLDY    57  54  89 W7        30.27F
WRAY             N/A    N/A N/A N/A SW5       30.23F
STERLING       CLOUDY    61  61 100 S5        30.23F
HOLYOKE        MOCLDY    61  59  94 W7        30.22F
FORT MORGAN    CLOUDY    58  56  94 CALM      30.27F
$$

COZ086-089-092>099-311000-
...SOUTHEAST COLORADO...

CITY           SKY/WX    TMP DP  RH WIND       PRES   REMARKS
PUEBLO         CLOUDY    61  58  90 SE5       30.28F
LA JUNTA       MOCLDY    61  59  93 W3        30.27F
LAMAR          PTCLDY    57  55  93 SW6       30.25S
SPRINGFIELD      N/A     54  53  97 NW6       30.29R
$$


USA.gov is the U.S. government's official web portal to all federal, state and local government web resources and services.